Location: Unspecified
(0.0000°N, 0.0000°E)
Time: 07:27:35
(UTC+02:00)

ASC 2 Rocket - Visible Passes

Search period start: 26 September 2017 00:00
Search period end: 06 October 2017 00:00
Orbit: 555 x 2346 km, 24.0° (Epoch: 25 September)

Date Brightness Start Highest point End Pass type
(mag) Time Alt. Az. Time Alt. Az. Time Alt. Az.
26 Sep 7.5 00:33:13 10° W 00:33:28 11° W 00:33:28 11° W visible
26 Sep 5.7 21:17:52 10° SW 21:31:56 56° SSE 21:36:41 39° ESE visible
26 Sep 6.4 23:23:59 10° WSW 23:31:31 38° WSW 23:31:31 38° WSW visible
27 Sep 6.3 20:09:51 10° SW 20:23:25 46° SSE 20:34:44 12° E visible
27 Sep 5.3 22:15:07 10° WSW 22:29:26 85° SSE 22:29:35 85° SE visible
28 Sep 7.3 00:22:37 10° W 00:24:25 15° W 00:24:25 15° W visible
28 Sep 5.7 21:06:44 10° SW 21:21:15 68° SSE 21:27:39 35° E visible
28 Sep 6.2 23:13:07 10° WSW 23:22:29 45° W 23:22:29 45° W visible
29 Sep 6.2 19:58:54 10° SW 20:12:43 54° SSE 20:25:38 10° E visible
29 Sep 5.4 22:04:08 10° WSW 22:18:40 81° NNW 22:20:34 69° NE visible
30 Sep 7.2 00:12:12 10° W 00:15:25 18° W 00:15:25 18° W visible
30 Sep 5.8 20:55:46 10° WSW 21:10:24 81° SSE 21:18:39 29° ENE visible
30 Sep 6.1 23:02:26 10° W 23:13:29 47° WNW 23:13:29 47° WNW visible
01 Oct 6.1 19:48:03 10° SW 20:01:53 64° SSE 20:15:31 10° ENE visible
01 Oct 5.7 21:53:21 10° WSW 22:07:49 69° NNW 22:11:34 52° NNE visible
02 Oct 7.1 00:01:57 10° W 00:06:24 20° WNW 00:06:24 20° WNW visible
02 Oct 5.6 06:25:32 10° N 06:27:14 12° NNE 06:28:50 10° NE visible
02 Oct 5.9 20:45:00 10° WSW 20:59:27 87° NNW 21:09:37 22° ENE visible
02 Oct 6.2 22:51:58 10° W 23:04:27 44° NNW 23:04:27 44° NNW visible
03 Oct 4.5 07:19:58 10° NW 07:23:48 28° NNE 07:27:20 10° E visible
03 Oct 6.0 21:42:47 10° WSW 21:56:57 58° NNW 22:02:29 39° NNE visible
03 Oct 7.1 23:51:51 10° WNW 23:57:19 22° NW 23:57:19 22° NW visible
04 Oct 5.2 06:16:02 16° N 06:17:42 19° NNE 06:20:48 10° ENE visible
04 Oct 6.0 20:34:26 10° WSW 20:48:29 74° NNW 21:00:29 16° ENE visible
04 Oct 6.3 22:41:44 10° W 22:54:33 38° NNW 22:55:19 38° NNW visible
05 Oct 6.2 05:14:08 10° NE 05:14:08 10° NE 05:14:14 10° NE visible
05 Oct 3.7 07:09:34 10° NW 07:14:12 48° NNE 07:18:06 10° E visible
05 Oct 6.3 21:32:28 10° W 21:46:07 50° NNW 21:53:16 29° NNE visible
